Welcome to the New NWS' Forecast!
Most changes are behind the scenes, but click here for differences you might notice.

Regional Weather Roundup (RWR)

Issued by Gray - Portland, ME (GYX)

                            
000
ASUS41 KGYX 150910
RWRGYX
WEATHER ROUNDUP FOR MAINE AND NEW HAMPSHIRE
NATIONAL WEATHER SERVICE GRAY ME
500 AM EDT WED AUG 15 2018

MEZ002-005-006-010-012-015-018-020-021-024-026-027-029-151000-
MAINE
  
CITY           SKY/WX    TMP DP  RH WIND       PRES   REMARKS
PORTLAND       CLOUDY    70  69  97 CALM      29.81R FOG              
SANFORD        CLOUDY    68  68 100 SW3       29.82R                  
BAR HARBOR     FOG       68  68 100 S6        29.81F VSB 1/2          
WISCASSET      CLOUDY    69  69 100 CALM      29.81S FOG              
ROCKLAND       FOG       65  65 100 S3        29.80S VSB 1/2          
FRYEBURG       CLOUDY    68  68 100 CALM      29.82S                  
LEWISTONAUBURN CLOUDY    69  69 100 CALM      29.81S                  
AUGUSTA        FOG       68  68 100 NW3       29.81S VSB 1/4          
WATERVILLE     CLOUDY    69  68  96 CALM      29.79S FOG              
BANGOR         CLOUDY    70  70 100 S5        29.81S FOG              
GREENVILLE       N/A     67  65  93 CALM      29.82R                  
MILLINOCKET    CLOUDY    70  67  90 S3        29.81S                  
HOULTON        CLOUDY    69  68  96 SW7       29.78F                  
PRESQUE ISLE   CLOUDY    70  67  90 S6        29.78S                  
FRENCHVILLE    LGT RAIN  70  66  87 SW8       29.76S                  
CARIBOU        LGT RAIN  70  68  93 SW5       29.76F                  
$$

NHZ002-005-008-009-011-012-014-151000-
NEW HAMPSHIRE
  
CITY           SKY/WX    TMP DP  RH WIND       PRES   REMARKS
PORTSMOUTH     CLOUDY    69  69  99 CALM      29.79S FOG              
ROCHESTER      CLOUDY    69  69 100 CALM      29.81S FOG              
MANCHESTER     NOT AVBL                                               
CONCORD        CLOUDY    69  68  96 CALM      29.81F                  
LACONIA        MOCLDY    67  66  97 W3        29.82F                  
PLYMOUTH       CLOUDY    65  64  96 CALM      29.82S FOG              
BERLIN         FOG       63  63 100 CALM      29.84S VSB 1/4          
WHITEFIELD     FOG       58  58 100 CALM      29.84S VSB 3/4          
JAFFREY        NOT AVBL                                               
LEBANON        CLOUDY    67  64  90 CALM      29.82R FOG              
MT WASHINGTON  MOCLDY    52  48  87 W7          N/A                   
$$

VTZ005-007-008-151000-
VERMONT
  
CITY           SKY/WX    TMP DP  RH WIND       PRES   REMARKS
ST JOHNSBURY     N/A     64  64 100 MISG      29.81S                  
MONTPELIER     CLOUDY    64  64 100 S3        29.87R FOG              
BURLINGTON     FAIR      69  65  86 CALM      29.81R                  
$$

MAZ007-012-024-CTZ003-RIZ002-NYZ038-NYZ072-151000-
SOUTHERN NEW ENGLAND AND NY
  
CITY           SKY/WX    TMP DP  RH WIND       PRES   REMARKS
BOSTON         CLOUDY    71  68  90 S7        29.81R                  
WORCESTER      CLOUDY    67  67 100 W7        29.84S FOG              
NANTUCKET      FAIR      73  72  96 SW10      29.83F                  
PROVIDENCE     FAIR      69  68  96 CALM      29.82S                  
HARTFORD       MOCLDY    68  67  96 CALM      29.81S FOG              
ALBANY         FAIR      68  63  84 CALM      29.83S                  
NEW YORK CITY  FAIR      73  65  75 W10       29.84R                  
$$

ANZ081-ANZ082-ANZ150-NHZ014-MEZ023>029-151000-
COASTAL MARINE OBSERVATIONS
  
STATION/POSITION TIME  TEMP    WIND        PRES    WAVE
                       AIR SEA DIR/SP/G            HT/PER
                 (UTC) (F)     (DEG/KT/KT) (MB)    (FT/S)
MOUNT DESERT ROC 0900   65     160/ 15/ 15 1009.9F
MATINICUS ROCK   0800   65     190/ 15/ 15 1009.3F
ISLE OF SHOALS   0800   68      50/  3/  3 1009.0F
JEFFREYS LEDGE   0836      69                N/A     2/ 8
$$

.............KEY..............
   WCI - WIND CHILL
   TC  - TEMPERATURE IN CELSIUS
   VSB - VISIBILITY IN MILES
   HX  - HEAT INDEX
   FAIR- INDICATES FEW OR NO CLOUDS BELOW 12,000 FT, WITH NO 
         SIGNIFICANT WEATHER AND/OR OBSTRUCTIONS TO VISIBILITY.